Location: Betz
(49.1556°N, 2.9558°E)
Time: 13:11:22
(UTC+00:00)

USA 234 - Pass Details

Date: 18 September 2019
Orbit: 1103 x 1105 km, 123.0° (Epoch: 17 October)

Event Time Altitude Azimuth Distance (km) Brightness Sun altitude
Rises 18:26:25 0° 61° (ENE) 3,926 5.7 -5.8°
Reaches altitude 10° 18:28:57 10° 58° (ENE) 2,967 5.1 -6.2°
Maximum altitude 18:35:18 55° 343° (NNW) 1,305 3.9 -7.3°
Drops below altitude 10° 18:41:38 10° 267° (W) 2,963 7.0 -8.3°
Sets 18:44:10 0° 264° (W) 3,920 7.7 -8.7°
